Regional Weather Roundup
Issued by NWS

Home | Current Version | Previous Version | Text Only | Print | Product List | Glossary Off
Versions: 1 2 3 4 5 6 7 8 9 10 11 12 13 14 15 16 17 18 19 20 21 22 23 24 25 26 27 28 29 30 31 32 33 34 35 36 37 38 39 40 41 42 43 44 45 46 47 48 49 50

000
ASUS43 KMPX 191910
RWRMN
WEATHER ROUNDUP FOR MINNESOTA
NATIONAL WEATHER SERVICE TWIN CITIES/CHANHASSEN MN
200 PM CDT TUE AUG 19 2014


NOTE: "FAIR" INDICATES FEW OR NO CLOUDS BELOW 12,000 FEET WITH NO
SIGNIFICANT WEATHER AND/OR OBSTRUCTIONS TO VISIBILITY. N/A MEANS
CURRENT SKY AND/OR WEATHER CONDITIONS ARE NOT AVAILABLE.

MNZ060>063-068>070-192000-
   Twin Cities Metro

CITY           SKY/WX    TMP DP  RH WIND       PRES   REMARKS
TWIN CITIES    MOSUNNY   77  61  57 NW12G20   29.75S
ST PAUL        PTSUNNY   75  61  61 NW10      29.75S
CRYSTAL        MOSUNNY   79  61  53 NW8       29.74S
BLAINE         PTSUNNY   79  63  57 NW10      29.74F
LAKEVILLE      MOSUNNY   75  63  64 W9        29.76S
EDEN PRAIRIE   MOSUNNY   77  63  61 NW8       29.75S
SOUTH ST PAUL  CLOUDY    77  60  57 W9        29.75S
LAKE ELMO      FAIR      75  63  64 NW9       29.75F
$$
MNZ001>005-007-008-013>017-022>024-027-028-192000-
   Northwest Minnesota

CITY           SKY/WX    TMP DP  RH WIND       PRES   REMARKS
BEMIDJI        CLOUDY    71  61  71 NW8       29.77S
HALLOCK        MOSUNNY   75  64  69 NE3       29.75S
ROSEAU         SUNNY     73  64  73 W3        29.76S
WARROAD        PTSUNNY   70  64  83 NE8       29.77S
THIEF RVR FALL PTSUNNY   75  63  64 NW9       29.76F
CROOKSTON      MOSUNNY   75  64  69 N6        29.76S
FOSSTON        MOSUNNY   77  63  61 NW5       29.77F
DETROIT LAKES  SUNNY     75  63  64 NW8       29.80R
MOORHEAD       MOSUNNY   79  68  69 N8        29.76S
PARK RAPIDS    PTSUNNY   76  60  57 NW15      29.76S
MAHNOMEN       FAIR      75  64  67 NW6       29.76F
$$
MNZ006-009>011-018-025>026-192000-
   North Central Minnesota

CITY           SKY/WX    TMP DP  RH WIND       PRES   REMARKS
BAUDETTE       PTSUNNY   71  61  70 VRB6      29.76S
FLAG ISLAND    CLOUDY    66  61  82 NW3       29.76S
INTL FALLS     PTSUNNY   72  59  63 N8        29.75S
WASKISH        CLOUDY    70  64  83 CALM      29.76S
BIG FORK       MOSUNNY   70  61  73 N5        29.77R
LONGVILLE      CLOUDY    70  64  83 NW3       29.76S
GRAND RAPIDS   CLOUDY    70  59  68 N6        29.76S
CRANE LAKE     CLOUDY    63  61  94 CALM      29.77S
ORR            CLOUDY    66  57  72 N3        29.74S
COOK           PTSUNNY   66  59  77 N6        29.76S
WALKER         CLOUDY    72  62  69 N3        29.76S
$$
MNZ012-019>021-037-192000-
   Northeast Minnesota

CITY           SKY/WX    TMP DP  RH WIND       PRES   REMARKS
DULUTH         CLOUDY    70  62  76 NW7       29.73S
ELY            CLOUDY    63  57  82 CALM      29.76R
HIBBING        LGT RAIN  69  62  78 N9        29.75R
EVELETH        CLOUDY    68  57  68 NW9       29.76R
DULUTH HARBOR  DRIZZLE   68  64  88 CALM      29.72S
TWO HARBORS    CLOUDY    63  57  82 CALM      29.72R
SILVER BAY     PTSUNNY   61  61 100 CALM      29.72S FOG
GRAND MARAIS     N/A     60  58  92 CALM      29.72R
G MARAIS ARPRT CLOUDY    61  55  82 NW3       29.75S FOG
$$
MNZ029>031-032-039>041-046>048-054>057-064-192000-
   West Central Minnesota

CITY           SKY/WX    TMP DP  RH WIND       PRES   REMARKS
FERGUS FALLS   SUNNY     79  61  53 N5        29.76S
WHEATON        SUNNY     77  64  65 NW7       29.78S
MORRIS         SUNNY     82  64  54 NW8       29.77S
ALEXANDRIA     PTSUNNY   78  63  59 W8        29.79S
ELBOW LAKE     PTSUNNY   77  65  65 N9        29.77S
WADENA         MOSUNNY   77  63  61 NW10      29.76S
GLENWOOD       SUNNY     79  63  57 W9        29.79S
APPLETON       SUNNY     82  63  51 NW10      29.77S
BENSON         MOSUNNY   81  64  57 N8        29.77F
ORTONVILLE     SUNNY     81  64  57 N9        29.78S
MADISON        SUNNY     82  64  54 NW8       29.78S
WILLMAR        FAIR      81  63  54 W8        29.78S
$$
MNZ033>034-036-042>043-049>051-058-059-192000-
   Central Minnesota

CITY           SKY/WX    TMP DP  RH WIND       PRES   REMARKS
ST CLOUD       PTSUNNY   79  62  56 W9        29.75F
SAUK CENTRE    MOCLDY    78  62  57 NW10      29.77S
PAYNESVILLE    MOSUNNY   76  62  61 SW10      29.77S HAZE
AITKIN         MOSUNNY   75  64  69 W6        29.74S
PINE RIVER     PTSUNNY   73  63  68 N7        29.79F
BRAINERD       PTSUNNY   72  63  73 N6        29.76S
STAPLES        PTSUNNY   75  63  64 N7        29.76S
LONG PRAIRIE   CLOUDY    77  61  57 W12G17    29.77S
LITTLE FALLS   PTSUNNY   75  59  57 W7        29.76S
LITCHFIELD     MOSUNNY   79  66  65 NW5       29.77S
BUFFALO        SUNNY     78  60  53 W10G16    29.76S
MAPLE LAKE     MOSUNNY   78  66  65 W8        29.76S
$$
MNZ037-044-045-052-053-192000-
   East Central Minnesota

CITY           SKY/WX    TMP DP  RH WIND       PRES   REMARKS
PRINCETON      MOSUNNY   79  64  61 W8        29.75S
MORA           MOSUNNY   73  61  64 NW8       29.76S
CAMBRIDGE      MOSUNNY   75  63  64 NW7       29.73F
RUSH CITY      LGT RAIN  73  62  68 N5        29.74S
MOOSE LAKE     PTSUNNY   72  61  68 W6        29.72S
HINCKLEY       CLOUDY    73  63  68 NW6       29.74S
CLOQUET        PTSUNNY   72  61  68 NW7       29.74S
MCGREGOR       CLOUDY    72  63  73 W6        29.75S
$$
MNZ071>073-080-081-089-090-097-098-192000-
   Southwest Minnesota

CITY           SKY/WX    TMP DP  RH WIND       PRES   REMARKS
MONTEVIDEO     MOSUNNY   82  68  61 N9        29.78F
GRANITE FALLS  MOSUNNY   81  66  61 W12       29.79F
CANBY          SUNNY     82  63  51 N10G16    29.79F
MARSHALL       MOSUNNY   81  63  54 N12       29.78S
REDWOOD FALLS  MOSUNNY   82  65  56 N10       29.76F
OLIVIA         SUNNY     79  64  61 NW10G16   29.76F
PIPESTONE      MOSUNNY   81  63  54 W6        29.83S
WINDOM         MOSUNNY   79  64  61 NW5       29.81R
WORTHINGTON    MOSUNNY   82  21  10 NW8       29.83S
JACKSON        MOSUNNY   81  61  50 W9        29.82S
TRACY          PTSUNNY   81  64  55 N3        29.80S
SLAYTON        MOSUNNY   81  60  48 CALM      29.82F
$$
MNZ065>067-074>077-082>085-091>093-192000-
   South Central Minnesota

CITY           SKY/WX    TMP DP  RH WIND       PRES   REMARKS
MANKATO        PTSUNNY   77  63  61 NW9       29.77S
NEW ULM        SUNNY     79  66  65 NW7       29.77S
FAIRMONT       PTSUNNY   81  59  47 NW8       29.80R
GLENCOE        PTSUNNY   79  62  55 W10       29.75F
FARIBAULT      PTSUNNY   81  59  47 W9        29.78R
OWATONNA       MOSUNNY   77  63  61 W10       29.78S
WASECA         PTSUNNY   77  61  57 NW8       29.80R
ALBERT LEA     PTSUNNY   75  63  64 NW7       29.79S
$$
MNZ078>079-086>088-094>096-192000-
   Southeast Minnesota

CITY           SKY/WX    TMP DP  RH WIND       PRES   REMARKS
ROCHESTER      PTSUNNY   77  63  61 NW9G17    29.79R
RED WING       CLOUDY    75  61  60 NW6       29.74S
STANTON        PTSUNNY   76  62  62 NW7       29.75S
DODGE CENTER   MOSUNNY   75  63  64 NW12      29.78S
WINONA         CLOUDY    77  63  61 NW7       29.74S
AUSTIN         MOSUNNY   75  63  64 NW9       29.78S
PRESTON        PTSUNNY   74  67  76 NW8       29.78S
$$
ABBREVIATIONS USED IN REMARKS
   TC - TEMPERATURES IN CELSIUS
  WCI - WIND CHILL INDEX
   HX - HEAT INDEX
  VSB - VISIBILITY
$$



USA.gov is the U.S. government's official web portal to all federal, state and local government web resources and services.